Philadelphia, PA

8:36 PM EST on November 22, 2019 (GMT -0500)
Philadelphia International

Weather History for KPHL - September, 2019

Change the Weather History Date:

Wednesday, September 25, 2019

  Actual Average Record
Temperature  
Mean Temperature 70 °F 66 °F  
Max Temperature 81 °F 75 °F 92 °F (1970)
Min Temperature 59 °F 57 °F 35 °F (1963)
Degree Days  
Heating Degree Days 0 2  
Month to date heating degree days 2 19  
Since 1 July heating degree days 2 20  
Cooling Degree Days 5 3  
Month to date cooling degree days 200 150  
Year to date cooling degree days 1534 1267  
Growing Degree Days 20 (Base 50)    
Moisture  
Dew Point 50 °F    
Average Humidity 51    
Maximum Humidity 73    
Minimum Humidity 28    
Precipitation  
Precipitation 0.00 in 0.13 in 1.66 in (2000)
Month to date precipitation 0.99 3.11  
Year to date precipitation 37.02 31.13  
Snow  
Snow 0.00 in 0.00 in 0.00 in ()
Month to date snowfall 0.0 0.0  
Since 1 July snowfall 0.0 0.0  
Since 1 September snowfall 0.0 0.0  
Snow Depth 0.00 in    
Sea Level Pressure  
Sea Level Pressure 29.90 in    
Wind  
Wind Speed 5 mph (WSW)    
Max Wind Speed 14 mph    
Max Gust Speed 20 mph    
Visibility 10 miles    
Events      
T = Trace of Precipitation, MM = Missing Value Source: NWS Daily Summary

Daily Weather History Graph

Daily Weather History Graph

Search for Another Location

Airport or City:

Astronomy

Sep. 25, 2019 Rise Set
Actual Time 6:51 AM EDT 6:53 PM EDT
Civil Twilight 6:24 AM EDT 7:20 PM EDT
Nautical Twilight 5:52 AM EDT 7:51 PM EDT
Astronomical Twilight 5:20 AM EDT 8:23 PM EDT
Moon 2:42 AM EDT (9/25) 5:23 PM EDT (9/25)
Length of Visible Light 12h 56m
Length of Day
12h 02m
Waning Crescent, 14% of the Moon is Illuminated
Sep 25
Waning Crescent
Sep 28
New
Oct 5
First Quarter
Oct 13
Full
Oct 21
Last Quarter

Hourly Weather History & Observations

Time (EDT) Temp. Dew Point Humidity Pressure Visibility Wind Dir Wind Speed Gust Speed Precip Events Conditions
12:54 AM 64.9 °F 50.0 °F 58% 29.90 in 10.0 mi Calm Calm - N/A   Scattered Clouds
1:54 AM 64.0 °F 50.0 °F 60% 29.89 in 10.0 mi Calm Calm - N/A   Partly Cloudy
2:54 AM 61.0 °F 51.1 °F 70% 29.89 in 10.0 mi NNW 6.9 mph - N/A   Clear
3:54 AM 60.1 °F 51.1 °F 72% 29.89 in 10.0 mi NNW 6.9 mph - N/A   Partly Cloudy
4:54 AM 59.0 °F 50.0 °F 72% 29.92 in 10.0 mi Calm Calm - N/A   Clear
5:54 AM 61.0 °F 50.0 °F 67% 29.94 in 10.0 mi Variable 3.5 mph - N/A   Partly Cloudy
6:54 AM 60.1 °F 50.0 °F 69% 29.94 in 10.0 mi Calm Calm - N/A   Partly Cloudy
7:54 AM 60.1 °F 51.1 °F 72% 29.95 in 10.0 mi SSW 3.5 mph - N/A   Scattered Clouds
8:54 AM 66.9 °F 51.1 °F 57% 29.94 in 10.0 mi West 5.8 mph - N/A   Partly Cloudy
9:54 AM 68.0 °F 48.9 °F 50% 29.96 in 10.0 mi WSW 6.9 mph - N/A   Partly Cloudy
10:54 AM 72.0 °F 51.1 °F 48% 29.95 in 10.0 mi WSW 9.2 mph - N/A   Partly Cloudy
11:54 AM 73.9 °F 48.9 °F 41% 29.94 in 10.0 mi SW 5.8 mph - N/A   Partly Cloudy
11:58 AM 73.9 °F 48.9 °F 41% 29.93 in 10.0 mi Variable 4.6 mph - N/A   Partly Cloudy
12:54 PM 77.0 °F 48.0 °F 36% 29.91 in 10.0 mi WNW 11.5 mph - N/A   Scattered Clouds
1:54 PM 78.1 °F 48.0 °F 35% 29.88 in 10.0 mi West 9.2 mph - N/A   Partly Cloudy
2:54 PM 79.0 °F 46.9 °F 32% 29.86 in 10.0 mi Variable 5.8 mph - N/A   Partly Cloudy
3:54 PM 79.0 °F 45.0 °F 30% 29.84 in 10.0 mi West 6.9 mph - N/A   Clear
4:54 PM 80.1 °F 45.0 °F 29% 29.84 in 10.0 mi SSW 6.9 mph - N/A   Partly Cloudy
5:54 PM 79.0 °F 46.0 °F 31% 29.84 in 10.0 mi SSW 6.9 mph - N/A   Partly Cloudy
6:54 PM 77.0 °F 50.0 °F 39% 29.86 in 10.0 mi SSW 9.2 mph - N/A   Partly Cloudy
7:54 PM 75.0 °F 52.0 °F 44% 29.87 in 10.0 mi SSW 5.8 mph - N/A   Scattered Clouds
8:54 PM 70.0 °F 54.0 °F 57% 29.87 in 10.0 mi SSW 6.9 mph - N/A   Partly Cloudy
9:54 PM 69.1 °F 55.0 °F 61% 29.88 in 10.0 mi SSW 5.8 mph - N/A   Scattered Clouds
10:54 PM 66.9 °F 57.0 °F 70% 29.89 in 10.0 mi SSW 4.6 mph - N/A   Scattered Clouds
11:54 PM 66.0 °F 57.9 °F 75% 29.89 in 10.0 mi Calm Calm - N/A   Mostly Cloudy